Location: Heiligenberg
(48.5381°N, 7.3897°E)
Time: 23:36:25
(UTC+00:00)

USA 215 - Pass Details

Date: 26 May 2022
Orbit: 1099 x 1108 km, 123.0° (Epoch: 10 June)

Event Time Altitude Azimuth Distance (km) Brightness Sun altitude
Rises 01:59:59 0° 74° (ENE) 3,919 7.1 -12.5°
Reaches altitude 10° 02:02:34 10° 68° (ENE) 2,963 6.5 -12.2°
Maximum altitude 02:08:38 43° 360° (N) 1,518 4.5 -11.6°
Drops below altitude 10° 02:14:43 10° 292° (WNW) 2,968 5.4 -11.0°
Sets 02:17:19 0° 286° (WNW) 3,928 5.9 -10.7°
